THOR AGENA D R/B

Satellite information

Favourite Embed

Satellite Type and Status

ROCKET BODYIN ORBIT

Key statistics

Satellite THOR AGENA D R/B at a glance.

Uptime

22357

Days in orbit

Revolutions

≈ 14.3

Per day

Orbit

SSO

Sun Synchronous Orbit

Inclination

99.8

Latest

Satellite identification and parameters

Extended collection of information and parameters for THOR AGENA D R/B.

Object identification

Identified? True

Debris? False

Object name: THOR AGENA D R/B

International designator: 1964-031C

Object number (NORAD): 815

Object ID (CCSDS): 815

Country: UNITED STATES OF AMERICA (US)

Current information (Y/N): Y

RCS size: LARGE

Orbital parameters

Period: 100.817 minutes

Inclination: 99.8005 deg

SMA: 7175.442 km

Apoapsis: 806.046 km

Periapsis: 788.569 km

RAAN: 155.7062 deg

Eccentricy: 0.00121781

Argument of periapsis: 32.2967 deg

Mean anomaly: 327.8953 deg

Mean motion: 14.28333862 rev/day

Mean motion (dot): 0.00000398 rev/day2

B* drag term: 0.00018076804 1/REarth

Two-line elements (TLE)

Creation date: Sept. 3, 2025, 2:21 a.m.

Reference frame: TEME

Reference center: EARTH

Epoch: Sept. 2, 2025, 5:20 p.m. UTC

TLE line 0: 0 THOR AGENA D R/B

TLE line 1: 1 00815U 64031C 25245.72282420 .00000398 00000-0 18077-3 0 9999

TLE line 2: 2 00815 99.8005 155.7062 0012178 32.2967 327.8953 14.28333862179960

Live tracking on map

Real-time ground track for satellite THOR AGENA D R/B.

In-orbit conjunctions

A list of the most updated potential collisions computed for object THOR AGENA D R/B.

Target Orbit TCA Probability of collision Miss distance Type
SL-16 DEB LEO 2025-06-10 01:17:04 0.0005905501 92.0 (m) DEBRIS
SL-12 DEB LEO 2025-04-28 05:38:54 0.0002930541 326.0 (m) DEBRIS
FENGYUN 1C DEB SSO 2025-01-13 12:36:10 0.000145332 239.0 (m) DEBRIS
FENGYUN 1C DEB SSO 2024-11-10 13:45:26 0.0004748621 670.0 (m) DEBRIS
CZ-6A DEB LEO 2024-11-07 13:38:40 0.0001969211 688.0 (m) DEBRIS

Associated space launch

The DSAP-1 (Defense Satellite Application Program Block 1) satellites series, also known as P-35, was the first series of military meteorologal satellites of the USA.

THOR AGENA D R/B was lifted into orbit during the mission ‘Thor SLV-2 Agena D | DSAP-1 F8 & F9’, on board a Thor SLV-2 Agena D space rocket.

The launch took place on June 18, 1964, 4:56 a.m. from Space Launch Complex 1W.

For more information about the launch, click the button.

Launch to space Thor SLV-2 Agena D | DSAP-1 F8 & F9
Thor SLV-2 Agena D | DSAP-1 F8 & F9

Agency: N/A

Status: Launch Successful

Launch date: June 18, 1964, 4:56 a.m. UTC

Rocket: Thor SLV-2 Agena D

Launch pad: Space Launch Complex 1W

Location: Vandenberg SFB, CA, USA

...

Latest news about this satellite

There are no fresh news available about this satellite. Check back as we update our databases every day.


Newsletter sign-up

Weekly statistics, charts and insights to help you stay on top of the space industry.